Location: Strada George Coșbuc
(47.6577°N, 23.5639°E)
Time: 13:56:26
(UTC+02:00)

ISS - Pass Details

Date: 24 July 2017
Orbit: 412 x 421 km, 51.6° (Epoch: 22 November)

Event Time Altitude Azimuth Distance (km) Brightness Sun altitude
Rises 00:08:58 0° 293° (WNW) 2,351 0.7 -19.9°
Reaches altitude 10° 00:11:03 10° 294° (WNW) 1,490 -0.4 -20.0°
Maximum altitude 00:14:24 82° 22° (NNE) 427 -3.8 -20.2°
Enters shadow 00:14:24 82° 27° (NNE) 427 -3.8 -20.2°
